User: anonymous   Login
Location: Caltech
(34.1382°N, 118.1253°W)
Time: 05:11:47
(UTC-07:00)
Language:

Gbstr 26 Del rocket - Orbit

View from above orbital plane
View from above orbital plane
View from above satellite
View from above satellite

Ground track
Ground track

The orbit data is extracted from the following two-line orbital elements,

1 25876U 99041E   17172.89546423 -.00000202 +00000-0 +75246-5 0  9994
2 25876 051.7645 298.2962 0532105 041.8008 322.2316 14.04060494915267
Epoch (UTC): 21 June 2017 21:29:28
Eccentricity: 0.0532105
inclination: 51.7645°
perigee height: 493 km
apogee height: 1266 km
right ascension of ascending node: 298.2962°
argument of perigee: 41.8008°
revolutions per day: 14.04060494
mean anomaly at epoch: 322.2316°
orbit number at epoch: 91526

The dashed part of the orbit path shows where the satellite is in the earth's shadow,  

DLR